DW9313 Weather Reports


Display with metric or nautical units.
time (UTC)temp
F
wind
direction
speed
MPH
gust
MPH
rain 1hr
in
rain 24hr
in
rain mn
in
humidity
%
barometer
mb
20260509233324 46 308 6.0 9.0 0.00 0.02 0.00 75 1022.0
20260509232326 46 309 6.0 8.0 0.00 0.02 0.00 76 1022.0
20260509231826 46 311 6.0 8.0 0.00 0.02 0.00 76 1022.0
20260509231324 46 314 6.0 9.0 0.00 0.02 0.00 76 1022.0
20260509230843 47 314 6.0 10.0 0.00 0.02 0.00 77 1022.0
20260509230324 47 309 4.0 6.0 0.00 0.02 0.00 76 1022.0
20260509225825 48 316 4.0 7.0 0.00 0.02 0.00 76 1021.9
20260509225326 48 310 3.0 7.0 0.00 0.02 0.00 76 1021.9
20260509224326 48 308 5.0 8.0 0.00 0.02 0.00 75 1021.8
20260509223825 48 311 3.0 6.0 0.00 0.02 0.00 75 1021.8
20260509223324 49 308 3.0 6.0 0.00 0.02 0.00 75 1021.9
20260509222325 49 306 3.0 9.0 0.00 0.02 0.00 74 1021.8
20260509221825 49 312 6.0 9.0 0.00 0.02 0.00 74 1021.7
20260509221325 49 312 6.0 8.0 0.00 0.02 0.00 74 1021.7
20260509220825 49 301 4.0 6.0 0.00 0.02 0.00 74 1021.7
20260509215825 49 307 5.0 7.0 0.00 0.02 0.00 73 1021.7
20260509214825 49 305 3.0 8.0 0.00 0.02 0.00 73 1021.6
20260509214325 49 317 4.0 6.0 0.00 0.02 0.00 73 1021.6
20260509213825 50 310 5.0 8.0 0.00 0.02 0.00 72 1021.5
20260509213325 50 315 5.0 7.0 0.00 0.02 0.00 72 1021.5
20260509212825 50 314 5.0 7.0 0.00 0.02 0.00 72 1021.5
20260509212325 50 308 3.0 7.0 0.00 0.02 0.00 72 1021.5
20260509211827 50 311 3.0 6.0 0.00 0.02 0.00 72 1021.4
20260509211326 51 312 3.0 6.0 0.00 0.02 0.00 73 1021.5
20260509210827 51 313 2.0 3.0 0.00 0.02 0.00 73 1021.5
20260509210327 51 298 0.0 2.0 0.00 0.02 0.00 73 1021.5
20260509205825 51 315 0.0 2.0 0.00 0.02 0.00 72 1021.4
20260509204825 52 310 0.0 2.0 0.00 0.02 0.00 73 1021.2
20260509204325 52 316 1.0 6.0 0.00 0.02 0.00 72 1021.2
20260509203825 52 313 2.0 6.0 0.00 0.02 0.00 71 1021.1
20260509203325 53 300 1.0 3.0 0.00 0.02 0.00 71 1021.1
20260509202825 53 206 0.0 2.0 0.00 0.02 0.00 70 1021.0
20260509202325 53 276 0.0 1.0 0.00 0.02 0.00 70 1021.0
20260509201826 54 259 1.0 3.0 0.00 0.02 0.00 69 1020.9
20260509201327 54 280 1.0 5.0 0.00 0.02 0.00 69 1021.0
20260509200326 54 154 1.0 5.0 0.00 0.02 0.00 68 1021.0
20260509195826 55 108 1.0 6.0 0.00 0.02 0.00 68 1020.9
20260509195326 55 168 1.0 6.0 0.00 0.02 0.00 69 1020.8
20260509194826 55 108 1.0 3.0 0.00 0.02 0.00 69 1020.7
20260509194326 56 121 1.0 5.0 0.00 0.02 0.00 68 1020.6
20260509193826 56 226 0.0 2.0 0.00 0.02 0.00 69 1020.7
20260509193327 56 103 0.0 3.0 0.00 0.02 0.00 69 1020.6
20260509192828 57 113 0.0 1.0 0.00 0.02 0.00 68 1020.6
20260509191326 57 123 2.0 8.0 0.00 0.02 0.00 67 1020.4
20260509190826 57 101 2.0 10.0 0.00 0.02 0.00 67 1020.3
20260509190327 58 109 2.0 6.0 0.00 0.02 0.00 66 1020.4
20260509184827 58 117 3.0 6.0 0.00 0.02 0.02 67 1020.2
20260509183827 58 105 3.0 8.0 0.00 0.02 0.02 67 1020.2
20260509183329 58 101 1.0 7.0 0.01 0.02 0.02 66 1020.1
20260509182827 59 120 3.0 8.0 0.01 0.02 0.02 65 1020.0
20260509182326 59 111 2.0 6.0 0.01 0.02 0.02 65 1020.0
20260509181826 59 85 2.0 6.0 0.01 0.02 0.02 65 1020.0
20260509181328 59 109 2.0 6.0 0.01 0.02 0.02 65 1020.0
20260509175828 58 111 3.0 7.0 0.01 0.02 0.02 65 1019.8
20260509174827 59 140 1.0 7.0 0.01 0.02 0.02 63 1019.8
20260509174328 59 273 1.0 5.0 0.01 0.02 0.02 59 1019.8
20260509173828 59 293 1.0 6.0 0.01 0.02 0.02 58 1019.8
20260509173327 59 279 2.0 8.0 0.00 0.01 0.01 58 1019.8
20260509172827 60 300 3.0 7.0 0.00 0.01 0.01 57 1019.8
20260509172329 60 255 2.0 8.0 0.00 0.01 0.01 57 1019.8
20260509171827 60 282 2.0 8.0 0.00 0.01 0.01 56 1019.8
20260509171328 60 306 5.0 10.0 0.00 0.01 0.01 56 1019.8
20260509170328 61 299 5.0 9.0 0.00 0.01 0.01 55 1019.7
20260509165827 61 314 3.0 12.0 0.00 0.01 0.01 56 1019.7
20260509165329 61 310 5.0 13.0 0.00 0.01 0.01 55 1019.6
20260509164827 61 299 3.0 9.0 0.00 0.01 0.01 56 1019.6
20260509164330 61 262 1.0 6.0 0.00 0.01 0.01 56 1019.7
20260509163828 62 259 2.0 6.0 0.00 0.01 0.01 56 1019.7
20260509163328 61 164 1.0 7.0 0.00 0.01 0.01 57 1019.7
20260509162828 61 273 2.0 6.0 0.00 0.01 0.01 56 1019.7
20260509162327 61 288 2.0 10.0 0.00 0.01 0.01 57 1019.6
20260509161828 61 285 5.0 10.0 0.00 0.01 0.01 56 1019.6
20260509161328 61 238 2.0 8.0 0.00 0.01 0.01 57 1019.6
20260509160828 61 302 6.0 10.0 0.00 0.01 0.01 57 1019.6
20260509155329 61 195 1.0 6.0 0.00 0.01 0.01 59 1019.7
20260509154828 60 122 6.0 13.0 0.00 0.01 0.01 59 1019.7
20260509153828 60 265 3.0 10.0 0.00 0.01 0.01 59 1019.7
20260509153328 60 300 5.0 8.0 0.00 0.01 0.01 59 1019.7
20260509152828 60 298 4.0 9.0 0.00 0.01 0.01 60 1019.7
20260509152330 60 290 3.0 12.0 0.00 0.01 0.01 59 1019.6
20260509151828 61 285 3.0 6.0 0.00 0.01 0.01 59 1019.7
20260509151329 61 254 2.0 6.0 0.00 0.01 0.01 59 1019.7
20260509150828 61 292 3.0 9.0 0.00 0.01 0.01 59 1019.7
20260509150330 61 278 4.0 9.0 0.00 0.01 0.01 58 1019.7
20260509145829 61 244 2.0 6.0 0.00 0.01 0.01 58 1019.7
20260509145328 61 275 2.0 9.0 0.00 0.01 0.01 58 1019.8
20260509144828 61 288 3.0 9.0 0.00 0.01 0.01 58 1019.8
20260509144330 61 299 5.0 10.0 0.00 0.01 0.01 57 1019.8
20260509143829 61 294 3.0 7.0 0.00 0.01 0.01 58 1019.8
20260509143329 61 303 5.0 9.0 0.00 0.01 0.01 58 1019.9
20260509142829 61 156 1.0 6.0 0.00 0.01 0.01 57 1019.8
20260509142330 61 242 2.0 6.0 0.00 0.01 0.01 59 1019.9
20260509141829 61 260 2.0 6.0 0.00 0.01 0.01 59 1019.9
20260509141331 61 311 3.0 7.0 0.00 0.01 0.01 59 1020.0
20260509140828 61 309 5.0 10.0 0.00 0.01 0.01 59 1020.0
20260509140329 61 304 6.0 9.0 0.00 0.01 0.01 58 1020.0
20260509135828 61 243 1.0 8.0 0.00 0.01 0.01 59 1020.0
20260509135329 61 303 2.0 6.0 0.00 0.01 0.01 59 1020.0
20260509134330 61 304 4.0 9.0 0.00 0.01 0.01 60 1019.9
20260509133830 61 287 4.0 9.0 0.00 0.01 0.01 60 1019.9
20260509133329 61 296 5.0 8.0 0.00 0.01 0.01 59 1019.9
20260509132829 61 291 3.0 6.0 0.00 0.01 0.01 60 1019.8
20260509132330 61 296 5.0 10.0 0.00 0.01 0.01 60 1019.8
20260509131830 62 301 3.0 6.0 0.00 0.01 0.01 60 1019.8
20260509130829 61 293 3.0 6.0 0.00 0.01 0.01 59 1019.9
20260509130329 61 213 1.0 5.0 0.00 0.01 0.01 61 1019.9
20260509125830 60 278 1.0 7.0 0.00 0.01 0.01 61 1019.9
20260509125329 60 290 2.0 6.0 0.00 0.01 0.01 61 1019.9
20260509124831 60 276 3.0 9.0 0.00 0.01 0.01 62 1019.9
20260509124330 60 143 1.0 6.0 0.00 0.01 0.01 62 1019.8
20260509123829 60 307 5.0 9.0 0.00 0.01 0.01 61 1019.9
20260509123329 60 291 4.0 10.0 0.00 0.01 0.01 61 1019.9
20260509121832 60 279 3.0 6.0 0.00 0.01 0.01 62 1020.0
20260509121330 60 286 3.0 6.0 0.00 0.01 0.01 63 1020.0
20260509115830 60 148 3.0 6.0 0.00 0.01 0.01 63 1020.1
20260509114830 60 295 3.0 6.0 0.00 0.01 0.01 63 1020.1
20260509114331 60 279 3.0 6.0 0.00 0.01 0.01 65 1020.0
20260509113330 60 293 3.0 12.0 0.00 0.01 0.01 65 1020.1
20260509112332 59 309 3.0 6.0 0.00 0.01 0.01 65 1020.0
20260509111830 59 137 2.0 10.0 0.00 0.01 0.01 66 1020.1
20260509111330 60 301 7.0 13.0 0.00 0.01 0.01 64 1020.0
20260509105832 59 311 3.0 8.0 0.00 0.01 0.01 67 1020.0
20260509105331 59 165 3.0 6.0 0.00 0.01 0.01 67 1020.0
20260509104831 58 199 1.0 10.0 0.00 0.01 0.01 68 1020.0
20260509104330 58 259 5.0 9.0 0.00 0.01 0.01 67 1020.0
20260509103832 59 307 6.0 13.0 0.00 0.01 0.01 67 1020.0
20260509103332 58 209 3.0 6.0 0.00 0.01 0.01 68 1020.1
20260509102830 58 130 2.0 8.0 0.00 0.01 0.01 69 1020.1
20260509102331 58 314 3.0 8.0 0.00 0.01 0.01 67 1020.2
20260509101832 58 281 2.0 7.0 0.00 0.01 0.01 69 1020.3
20260509101331 58 109 3.0 7.0 0.00 0.01 0.01 69 1020.3
20260509100332 58 298 1.0 6.0 0.00 0.01 0.01 71 1020.2
20260509095831 57 288 2.0 6.0 0.00 0.01 0.01 71 1020.2
20260509095331 56 129 1.0 6.0 0.00 0.01 0.01 73 1020.2
20260509094833 56 274 2.0 6.0 0.00 0.01 0.01 72 1020.2
20260509094331 55 265 2.0 10.0 0.00 0.01 0.01 74 1020.3
20260509093831 54 290 3.0 7.0 0.00 0.01 0.01 74 1020.2
20260509093331 54 268 2.0 8.0 0.00 0.01 0.01 74 1020.2
20260509092832 54 288 1.0 5.0 0.00 0.01 0.01 74 1020.2
20260509092330 54 129 1.0 6.0 0.00 0.01 0.01 76 1020.3
20260509091832 53 287 3.0 7.0 0.00 0.01 0.01 76 1020.4
20260509090831 53 304 2.0 6.0 0.00 0.01 0.01 74 1020.4
20260509090331 52 297 2.0 6.0 0.00 0.01 0.01 76 1020.4
20260509085832 52 302 2.0 7.0 0.00 0.01 0.01 76 1020.3
20260509085331 51 301 4.0 12.0 0.00 0.01 0.01 76 1020.3
20260509084831 51 304 3.0 7.0 0.00 0.01 0.01 76 1020.4
20260509084332 51 299 5.0 9.0 0.00 0.01 0.01 76 1020.3
20260509083831 51 306 7.0 10.0 0.00 0.01 0.01 76 1020.3
20260509083331 51 298 3.0 8.0 0.00 0.01 0.01 77 1020.3
20260509082833 51 297 2.0 6.0 0.00 0.01 0.01 77 1020.2
20260509082332 50 306 5.0 8.0 0.00 0.01 0.01 77 1020.2
20260509081832 50 302 2.0 7.0 0.00 0.01 0.01 78 1020.1
20260509081333 50 280 3.0 8.0 0.00 0.01 0.01 78 1020.2
20260509080332 50 320 2.0 6.0 0.00 0.01 0.01 80 1020.1
20260509075833 50 308 2.0 8.0 0.00 0.01 0.01 80 1020.1
20260509075333 49 312 2.0 7.0 0.00 0.01 0.01 80 1020.1
20260509074832 49 304 5.0 9.0 0.00 0.01 0.01 80 1020.0
20260509074332 49 300 3.0 7.0 0.00 0.01 0.01 80 1019.9
20260509073832 49 303 5.0 12.0 0.00 0.01 0.01 79 1019.9
20260509073333 49 316 3.0 7.0 0.00 0.01 0.01 80 1019.9
20260509072833 49 301 3.0 8.0 0.00 0.01 0.01 80 1020.0
20260509072332 49 314 4.0 8.0 0.00 0.01 0.01 81 1019.9
20260509071332 48 303 3.0 6.0 0.01 0.01 0.01 82 1019.9
20260509070832 48 309 3.0 6.0 0.01 0.01 0.01 82 1019.8
20260509070332 48 300 5.0 9.0 0.01 0.01 0.01 82 1019.8
20260509065832 48 311 3.0 7.0 0.01 0.01 0.01 83 1019.8
20260509064833 47 301 3.0 6.0 0.01 0.01 0.01 83 1019.7
20260509064333 47 304 2.0 8.0 0.01 0.01 0.01 84 1019.6
20260509063834 47 312 3.0 6.0 0.01 0.01 0.01 84 1019.6
20260509063332 47 309 4.0 8.0 0.01 0.01 0.01 84 1019.7
20260509062832 47 303 5.0 7.0 0.01 0.01 0.01 85 1019.7
20260509062333 46 304 4.0 6.0 0.01 0.01 0.01 85 1019.6
20260509061835 46 307 3.0 6.0 0.00 0.00 0.00 85 1019.6
20260509060835 46 307 2.0 6.0 0.00 0.00 0.00 86 1019.7
20260509060333 46 309 2.0 6.0 0.00 0.00 0.00 86 1019.7
20260509055833 46 311 3.0 6.0 0.00 0.00 0.00 86 1019.7
20260509055333 46 312 3.0 6.0 0.00 0.00 0.00 86 1019.7
20260509054833 45 311 3.0 6.0 0.00 0.00 0.00 86 1019.6
20260509054333 45 307 3.0 6.0 0.00 0.00 0.00 86 1019.5
20260509053833 45 309 1.0 6.0 0.00 0.00 0.00 86 1019.5
20260509053334 45 304 2.0 5.0 0.00 0.00 0.00 86 1019.3
20260509052833 45 303 3.0 7.0 0.00 0.00 0.00 86 1019.3
20260509052333 45 311 3.0 6.0 0.00 0.00 0.00 86 1019.3
20260509051333 45 308 2.0 6.0 0.00 0.00 0.00 86 1019.1
20260509050835 45 303 3.0 6.0 0.00 0.00 0.00 86 1019.1
20260509050333 45 302 3.0 6.0 0.00 0.00 0.00 86 1019.0
20260509045833 45 303 5.0 7.0 0.00 0.00 0.00 86 1019.0
20260509045333 45 306 5.0 8.0 0.00 0.00 0.00 86 1019.1
20260509044833 45 317 5.0 7.0 0.00 0.00 0.00 85 1019.2
20260509043834 45 315 4.0 6.0 0.00 0.00 0.00 85 1019.1
20260509043334 45 313 2.0 6.0 0.00 0.00 0.00 85 1019.1
20260509042834 46 311 3.0 7.0 0.00 0.00 0.00 85 1019.1
20260509042335 46 308 2.0 6.0 0.00 0.00 0.00 85 1019.1
20260509041834 46 316 3.0 6.0 0.00 0.00 0.00 85 1019.1
20260509041333 46 308 3.0 6.0 0.00 0.00 0.00 85 1019.0
20260509040834 46 309 3.0 6.0 0.00 0.00 0.00 85 1019.0
20260509040334 46 307 3.0 6.0 0.00 0.00 0.00 85 1019.0
20260509035834 46 310 2.0 5.0 0.00 0.00 0.00 85 1019.0
20260509035333 46 310 2.0 3.0 0.00 0.00 0.00 85 1019.0
20260509034834 46 310 3.0 6.0 0.00 0.00 0.00 85 1018.9
20260509034334 46 320 2.0 5.0 0.00 0.00 0.00 85 1018.8
20260509033835 46 306 2.0 6.0 0.00 0.00 0.00 85 1018.8
20260509033333 46 314 3.0 6.0 0.00 0.00 0.00 85 1018.8
20260509032835 46 317 3.0 6.0 0.00 0.00 0.00 85 1018.8
20260509032334 46 309 3.0 6.0 0.00 0.00 0.00 86 1018.8
20260509031834 46 306 5.0 6.0 0.00 0.00 0.00 86 1018.8
20260509031335 46 311 3.0 7.0 0.00 0.00 0.00 86 1018.9
20260509030334 46 315 3.0 7.0 0.00 0.00 0.00 87 1018.9
20260509025835 46 309 2.0 6.0 0.00 0.00 0.00 87 1018.8
20260509025334 46 313 3.0 6.0 0.00 0.00 0.00 87 1018.8
20260509024335 46 304 2.0 6.0 0.00 0.00 0.00 88 1018.8
20260509023835 46 313 2.0 6.0 0.00 0.00 0.00 88 1018.8
20260509023335 46 308 3.0 6.0 0.00 0.00 0.00 88 1018.7
20260509022834 46 315 3.0 5.0 0.00 0.00 0.00 87 1018.8
20260509020835 46 313 1.0 5.0 0.00 0.00 0.00 87 1018.7
20260509020334 47 311 1.0 5.0 0.00 0.00 0.00 86 1018.7
20260509015836 47 310 1.0 5.0 0.00 0.00 0.00 86 1018.7
20260509015334 47 315 3.0 6.0 0.00 0.00 0.00 85 1018.6
20260509014836 48 313 2.0 6.0 0.00 0.00 0.00 84 1018.6
20260509014335 48 314 2.0 5.0 0.00 0.00 0.00 83 1018.7
20260509013836 48 311 3.0 9.0 0.00 0.00 0.00 83 1018.7
20260509013335 48 313 5.0 8.0 0.00 0.00 0.00 83 1018.6
20260509012835 48 313 2.0 6.0 0.00 0.00 0.00 83 1018.7
20260509012335 48 311 2.0 3.0 0.00 0.00 0.00 83 1018.7
20260509011834 48 311 2.0 3.0 0.00 0.00 0.00 83 1018.7
20260509011336 48 300 1.0 3.0 0.00 0.00 0.00 83 1018.7
20260509010835 48 287 0.0 1.0 0.00 0.00 0.00 83 1018.7
20260509010336 48 300 0.0 2.0 0.00 0.00 0.00 83 1018.6
20260509005336 49 293 0.0 2.0 0.00 0.00 0.00 83 1018.6
20260509004836 49 318 1.0 3.0 0.00 0.00 0.00 83 1018.6
20260509004335 49 299 0.0 2.0 0.00 0.00 0.00 83 1018.5
20260509003835 49 297 0.0 5.0 0.00 0.00 0.00 83 1018.5
20260509003336 49 282 0.0 3.0 0.00 0.00 0.00 83 1018.6
20260509002337 49 300 0.0 2.0 0.00 0.00 0.00 84 1018.6
20260509001835 49 306 2.0 6.0 0.00 0.00 0.00 84 1018.5
20260509001336 49 301 0.0 2.0 0.00 0.00 0.00 85 1018.5
20260509000835 49 265 1.0 3.0 0.00 0.00 0.00 85 1018.5
20260509000337 49 177 0.0 2.0 0.00 0.00 0.00 85 1018.5
20260508235835 49 246 0.0 5.0 0.00 0.00 0.00 85 1018.4
20260508235336 49 258 0.0 2.0 0.00 0.00 0.00 85 1018.4
20260508234835 49 97 0.0 2.0 0.00 0.00 0.00 85 1018.5
20260508234337 49 243 0.0 1.0 0.00 0.00 0.00 85 1018.4
20260508233836 49 251 0.0 1.0 0.00 0.00 0.00 85 1018.4